This demonstration page uses our WeatherBlox Daily Observations layout. Learn more.

Left ArrowRight Arrow

44.89941, -97.11507

Hourly Observations for July 2, 2016

Temp ( °F °C ) Dew Point ( °F °C ) Humidity (%) Winds ( mph kmh ) Pressure ( in mb ) Visibility ( mi km ) Precip ( " mm )
12:53 am 00:53 Clear 60 15.6 49 9.4 67 67 SE 3 6 30.08 1019 10 16 0.00 0.00
1:53 am 01:53 Clear 57 13.9 47 8.3 69 69 Calm 30.08 1019 10 16 0.00 0.00
2:53 am 02:53 Clear 58 14.4 48 8.9 70 70 SSE 5 7 30.06 1018 10 16 0.00 0.00
3:53 am 03:53 Clear 57 13.9 49 9.4 74 74 SSE 3 6 30.06 1018 10 16 0.00 0.00
4:53 am 04:53 Clear 56 13.3 50 10 81 81 SSE 3 6 30.05 1018 10 16 0.00 0.00
5:53 am 05:53 Sunny 55 12.8 50 10 83 83 SSE 7 11 30.06 1018 10 16 0.00 0.00
6:53 am 06:53 Sunny 57 13.9 52 11.1 83 83 Calm 30.08 1019 10 16 0.00 0.00
7:53 am 07:53 Sunny 62 16.7 53 11.7 73 73 SE 6 9 30.06 1018 10 16 0.00 0.00
8:53 am 08:53 Sunny 67 19.4 54 12.2 63 63 ESE 5 7 30.06 1018 10 16 0.00 0.00
9:53 am 09:53 Sunny 72 22.2 50 10 46 46 VRB 6 9 30.06 1018 10 16 0.00 0.00
10:53 am 10:53 Sunny 74 23.3 51 10.6 45 45 S 8 13 30.05 1018 10 16 0.00 0.00
11:53 am 11:53 Mostly Sunny 76 24.4 50 10 40 40 SSE 7 11 30.05 1018 10 16 0.00 0.00
12:53 pm 12:53 Partly Cloudy 77 25 51 10.6 40 40 S 6 9 30.05 1018 10 16 0.00 0.00
1:53 pm 13:53 Mostly Sunny 78 25.6 49 9.4 36 36 VRB 7 11 30.04 1017 10 16 0.00 0.00
2:53 pm 14:53 Mostly Sunny 80 26.7 51 10.6 37 37 SSE 12 19 30.02 1017 10 16 0.00 0.00
3:53 pm 15:53 Partly Cloudy 81 27.2 51 10.6 35 35 SSW 9 15 30.02 1017 10 16 0.00 0.00
4:53 pm 16:53 Mostly Sunny 81 27.2 52 11.1 37 37 SSW 10 17 30.01 1016 10 16 0.00 0.00
5:53 pm 17:53 Sunny 80 26.7 51 10.6 37 37 S 12 19 30.00 1016 10 16 0.00 0.00
6:53 pm 18:53 Mostly Sunny 78 25.6 53 11.7 42 42 S 10 17 30.00 1016 10 16 0.00 0.00
7:53 pm 19:53 Sunny 76 24.4 52 11.1 43 43 S 9 15 29.99 1016 10 16 0.00 0.00
8:53 pm 20:53 Partly Cloudy 73 22.8 55 12.8 53 53 S 8 13 29.99 1016 10 16 0.00 0.00
9:53 pm 21:53 Mostly Cloudy 70 21.1 56 13.3 61 61 S 7 11 30.00 1016 10 16 0.00 0.00
10:53 pm 22:53 Clear 67 19.4 56 13.3 68 68 S 9 15 30.01 1016 10 16 0.00 0.00
11:53 pm 23:53 Clear 65 18.3 56 13.3 73 73 S 7 11 30.01 1016 10 16 0.00 0.00

Powered by AerisWeather